Weather History for Middletown, OH

Change the Weather History Date:

Tuesday, March 11, 2014

  Actual Average (KDAY) Record (KDAY)
Temperature  
Mean Temperature 55 °F 38 °F  
Max Temperature 70 °F 48 °F 76 °F (1990)
Min Temperature 40 °F 30 °F 5 °F (1948)
Degree Days  
Heating Degree Days 10 27  
Month to date heating degree days 312  
Since 1 July heating degree days 4587  
Cooling Degree Days 0 0  
Month to date cooling degree days 0  
Year to date cooling degree days 0  
Growing Degree Days 5 (Base 50)    
Moisture  
Dew Point 38 °F    
Average Humidity 59    
Maximum Humidity 81    
Minimum Humidity 27    
Precipitation  
Precipitation 0.00 in 0.10 in 1.00 in (1917)
Month to date precipitation 1.03  
Year to date precipitation 5.98  
Snow  
Snow 0.00 in 0.20 in 5.50 in (1906)
Month to date snowfall 1.7  
Since 1 July snowfall 21.0  
Snow Depth -    
Sea Level Pressure  
Sea Level Pressure 29.69 in    
Wind  
Wind Speed 2 mph (SW)    
Max Wind Speed 12 mph    
Max Gust Speed -    
Visibility 10 miles    
Events      
T = Trace of Precipitation, MM = Missing Value Source: NWS Daily Summary

Daily Weather History Graph

Daily Weather History Graph

Search for Another Location

Airport:

Trip Planner

Search our weather history database for the weather conditions in past years. The results will help you decide how hot, cold, wet, or windy it might be!

Date:

Astronomy

Mar. 11, 2014 Rise Set
Actual Time 7:55 AM EDT 7:40 PM EDT
Civil Twilight 7:28 AM EDT 8:07 PM EDT
Nautical Twilight 6:57 AM EDT 8:38 PM EDT
Astronomical Twilight 6:25 AM EDT 9:09 PM EDT
Moon 3:16 PM EDT (3/11) 4:47 AM EDT (3/11)
Length of Visible Light 12h 38m
Length of Day
11h 45m
Waxing Gibbous, 78% of the Moon is Illuminated
Mar 11
Waxing Gibbous
Mar 16
Full
Mar 23
Last Quarter
Mar 30
New
Apr 7
First Quarter

Hourly Weather History & Observations

Time (EDT) Temp. Windchill Dew Point Humidity Pressure Visibility Wind Dir Wind Speed Gust Speed Precip Events Conditions
12:00 AM 42.6 °F - 34.5 °F 73% 29.77 in 10.0 mi Calm Calm - N/A   Clear
12:15 AM 41.0 °F - 33.6 °F 75% 29.76 in 10.0 mi Calm Calm - N/A   Clear
12:35 AM 41.4 °F - 35.1 °F 78% 29.76 in 10.0 mi Calm Calm - N/A   Clear
12:55 AM 41.4 °F - 35.6 °F 80% 29.75 in 10.0 mi Calm Calm - N/A   Clear
1:15 AM 40.3 °F - 34.0 °F 78% 29.75 in 10.0 mi Calm Calm - N/A   Clear
1:35 AM 40.6 °F - 34.0 °F 77% 29.74 in 10.0 mi Calm Calm - N/A   Clear
1:55 AM 41.0 °F - 34.3 °F 77% 29.74 in 10.0 mi Calm Calm - N/A   Clear
2:15 AM 41.4 °F - 34.7 °F 77% 29.74 in 10.0 mi Calm Calm - N/A   Clear
2:35 AM 41.4 °F - 34.7 °F 77% 29.73 in 10.0 mi Calm Calm - N/A   Clear
2:55 AM 42.6 °F - 35.1 °F 75% 29.73 in 10.0 mi Calm Calm - N/A   Clear
3:15 AM 42.8 °F - 34.9 °F 74% 29.73 in 10.0 mi Calm Calm - N/A   Clear
3:35 AM 41.5 °F - 34.3 °F 76% 29.73 in 10.0 mi Calm Calm - N/A   Clear
3:55 AM 41.5 °F - 34.3 °F 76% 29.73 in 10.0 mi Calm Calm - N/A   Clear
4:15 AM 42.8 °F 41.1 °F 34.9 °F 74% 29.73 in 10.0 mi SSW 3.5 mph - N/A   Clear
4:40 AM 43.9 °F 42.3 °F 36.0 °F 74% 29.73 in 10.0 mi SW 3.5 mph - N/A   Clear
4:55 AM 44.2 °F 42.7 °F 35.8 °F 72% 29.73 in 10.0 mi SW 3.5 mph - N/A   Clear
5:15 AM 47.7 °F - 36.1 °F 64% 29.73 in 10.0 mi SW 4.6 mph - N/A   Clear
5:35 AM 46.8 °F - 36.5 °F 67% 29.72 in 10.0 mi SSW 3.5 mph - N/A   Clear
5:55 AM 44.6 °F 43.1 °F 36.1 °F 72% 29.72 in 10.0 mi SSW 3.5 mph - N/A   Clear
6:15 AM 45.1 °F 43.7 °F 36.1 °F 71% 29.73 in 10.0 mi SW 3.5 mph - N/A   Clear
6:35 AM 45.5 °F 44.2 °F 36.9 °F 72% 29.73 in 10.0 mi SW 3.5 mph - N/A   Clear
6:55 AM 47.7 °F - 38.1 °F 70% 29.73 in 10.0 mi Calm Calm - N/A   Clear
7:15 AM 47.7 °F - 38.1 °F 70% 29.73 in 10.0 mi WSW 3.5 mph - N/A   Clear
7:35 AM 47.7 °F - 37.6 °F 68% 29.74 in 10.0 mi WSW 3.5 mph - N/A   Clear
7:55 AM 41.5 °F 39.6 °F 35.2 °F 78% 29.73 in 10.0 mi SSW 3.5 mph - N/A   Clear
8:15 AM 40.6 °F - 34.7 °F 79% 29.73 in 10.0 mi Calm Calm - N/A   Clear
8:35 AM 42.4 °F 40.7 °F 36.7 °F 80% 29.73 in 10.0 mi SW 3.5 mph - N/A   Clear
8:55 AM 41.5 °F 39.6 °F 36.0 °F 81% 29.74 in 10.0 mi WSW 3.5 mph - N/A   Clear
9:20 AM 45.1 °F 43.7 °F 39.4 °F 80% 29.73 in 10.0 mi SW 3.5 mph - N/A   Clear
9:35 AM 46.4 °F 45.2 °F 39.9 °F 78% 29.74 in 10.0 mi WSW 3.5 mph - N/A   Clear
9:55 AM 51.8 °F - 41.5 °F 68% 29.74 in 10.0 mi Calm Calm - N/A   Clear
10:15 AM 52.7 °F - 41.0 °F 64% 29.74 in 10.0 mi SW 4.6 mph - N/A   Clear
10:35 AM 54.0 °F - 40.8 °F 61% 29.74 in 10.0 mi SW 6.9 mph - N/A   Clear
10:55 AM 55.4 °F - 40.3 °F 57% 29.73 in 10.0 mi SW 8.1 mph - N/A   Clear
11:15 AM 57.4 °F - 41.7 °F 56% 29.73 in 10.0 mi SW 10.4 mph - N/A   Clear
11:35 AM 57.7 °F - 41.0 °F 54% 29.72 in 10.0 mi SSW 9.2 mph - N/A   Clear
11:55 AM 57.7 °F - 40.5 °F 53% 29.72 in 10.0 mi WSW 6.9 mph - N/A   Clear
12:15 PM 57.9 °F - 40.6 °F 53% 29.72 in 10.0 mi SW 4.6 mph - N/A   Clear
12:35 PM 60.1 °F - 41.0 °F 49% 29.71 in 10.0 mi South 4.6 mph - N/A   Clear
12:55 PM 61.0 °F - 40.5 °F 47% 29.70 in 10.0 mi South 9.2 mph - N/A   Clear
1:15 PM 62.4 °F - 40.8 °F 45% 29.70 in 10.0 mi SW 11.5 mph - N/A   Clear
1:35 PM 63.9 °F - 41.4 °F 44% 29.69 in 10.0 mi SSW 9.2 mph - N/A   Clear
1:55 PM 65.1 °F - 40.8 °F 41% 29.69 in 10.0 mi SW 8.1 mph - N/A   Clear
2:15 PM 67.1 °F - 41.2 °F 39% 29.67 in 10.0 mi SSW 10.4 mph - N/A   Clear
2:35 PM 67.6 °F - 40.5 °F 37% 29.67 in 10.0 mi SW 9.2 mph - N/A   Clear
2:55 PM 67.6 °F - 39.2 °F 35% 29.66 in 10.0 mi SW 6.9 mph - N/A   Clear
3:15 PM 67.6 °F - 38.5 °F 34% 29.65 in 10.0 mi West 9.2 mph - N/A   Clear
3:35 PM 67.6 °F - 37.2 °F 33% 29.65 in 10.0 mi West 6.9 mph - N/A   Clear
3:55 PM 67.6 °F - 37.6 °F 33% 29.65 in 10.0 mi WNW 6.9 mph - N/A   Clear
4:15 PM 67.6 °F - 37.6 °F 33% 29.64 in 10.0 mi West 3.5 mph - N/A   Clear
4:35 PM 67.6 °F - 36.7 °F 32% 29.63 in 10.0 mi Calm Calm - N/A   Clear
4:55 PM 68.5 °F - 35.8 °F 30% 29.63 in 10.0 mi Calm Calm - N/A   Clear
5:15 PM 68.0 °F - 35.8 °F 31% 29.62 in 10.0 mi Calm Calm - N/A   Clear
5:35 PM 67.6 °F - 36.5 °F 32% 29.61 in 10.0 mi Calm Calm - N/A   Clear
5:55 PM 68.9 °F - 35.6 °F 29% 29.61 in 10.0 mi Calm Calm - N/A   Clear
6:15 PM 68.5 °F - 34.9 °F 29% 29.61 in 10.0 mi Calm Calm - N/A   Clear
6:35 PM 70.0 °F - 34.5 °F 27% 29.60 in 10.0 mi Calm Calm - N/A   Clear
6:55 PM 67.6 °F - 36.3 °F 32% 29.60 in 10.0 mi Calm Calm - N/A   Clear
7:15 PM 67.6 °F - 32.5 °F 27% 29.60 in 10.0 mi Calm Calm - N/A   Clear
7:35 PM 66.7 °F - 37.8 °F 34% 29.60 in 10.0 mi Calm Calm - N/A   Clear
7:55 PM 57.7 °F - 39.6 °F 51% 29.61 in 10.0 mi North 3.5 mph - N/A   Clear
8:15 PM 52.9 °F - 39.4 °F 60% 29.62 in 10.0 mi Calm Calm - N/A   Clear
8:35 PM 53.2 °F - 39.7 °F 60% 29.62 in 10.0 mi Calm Calm - N/A   Clear
8:55 PM 52.7 °F - 40.1 °F 62% 29.62 in 10.0 mi Calm Calm - N/A   Clear
9:15 PM 52.7 °F - 40.1 °F 62% 29.62 in 10.0 mi Calm Calm - N/A   Clear
9:35 PM 51.8 °F - 41.0 °F 67% 29.62 in 10.0 mi Calm Calm - N/A   Scattered Clouds
9:55 PM 51.3 °F - 40.1 °F 66% 29.62 in 10.0 mi Calm Calm - N/A   Scattered Clouds
10:15 PM 51.3 °F - 41.0 °F 68% 29.62 in 10.0 mi Calm Calm - N/A   Clear
10:35 PM 50.9 °F - 40.6 °F 68% 29.62 in 10.0 mi SE 3.5 mph - N/A   Clear
10:55 PM 52.7 °F - 41.0 °F 64% 29.62 in 10.0 mi North 3.5 mph - N/A   Scattered Clouds
11:15 PM 54.1 °F - 40.1 °F 59% 29.62 in 10.0 mi South 4.6 mph - N/A   Scattered Clouds
11:35 PM 55.4 °F - 40.3 °F 57% 29.62 in 10.0 mi North 3.5 mph - N/A   Scattered Clouds
11:55 PM 55.4 °F - 42.3 °F 61% 29.60 in 10.0 mi North 8.1 mph - N/A   Mostly Cloudy